• In Russia
  • List of Countries
  • For 7 days
  • Water Temperature
  • Satellite Maps
  • Weather Map
  • Weather Widgets
  • user-avatar
    Login

    Hourly Weather Luanda

    Today, 21 October, Saturday

    Time Temperature Precipitation Wind Pressure Humidity
    00:00 +27°C° 0 mm 3 mps 755 mmHg 78%
    01:00 +26°C° 0 mm 2 mps 755 mmHg 78%
    02:00 +26°C° 0.1 mm 2 mps 755 mmHg 79%
    03:00 +26°C° 0.1 mm 2 mps 754 mmHg 79%
    04:00 +26°C° 0.1 mm 2 mps 754 mmHg 79%
    05:00 +26°C° 0.2 mm 2 mps 755 mmHg 78%
    06:00 +27°C° 0.2 mm 2 mps 755 mmHg 77%
    07:00 +27°C° 0.2 mm 2 mps 755 mmHg 76%
    08:00 +29°C° 0.1 mm 2 mps 755 mmHg 68%
    09:00 +31°C° 0.1 mm 1 mps 756 mmHg 60%
    10:00 +32°C° 0.1 mm 1 mps 756 mmHg 52%
    11:00 +34°C° 0 mm 2 mps 755 mmHg 50%
    12:00 +35°C° 0 mm 3 mps 754 mmHg 48%
    13:00 +35°C° 0 mm 4 mps 753 mmHg 46%
    14:00 +34°C° 0 mm 4 mps 753 mmHg 50%
    15:00 +33°C° 0 mm 5 mps 752 mmHg 54%
    16:00 +32°C° 0 mm 5 mps 752 mmHg 58%
    17:00 +30°C° 0 mm 5 mps 753 mmHg 63%
    18:00 +29°C° 0 mm 5 mps 753 mmHg 68%
    19:00 +28°C° 0 mm 5 mps 754 mmHg 73%
    20:00 +27°C° 0 mm 5 mps 754 mmHg 74%
    21:00 +27°C° 0 mm 4 mps 755 mmHg 75%
    22:00 +27°C° 0 mm 4 mps 756 mmHg 77%
    23:00 +27°C° 0 mm 4 mps 755 mmHg 76%

    Tomorrow, 22 October, Sunday

    Time Temperature Precipitation Wind Pressure Humidity
    00:00 +27°C° 0 mm 3 mps 755 mmHg 76%
    01:00 +27°C° 0 mm 3 mps 755 mmHg 76%
    02:00 +27°C° 0 mm 3 mps 755 mmHg 77%
    03:00 +27°C° 0 mm 3 mps 755 mmHg 77%
    04:00 +26°C° 0 mm 3 mps 755 mmHg 78%
    05:00 +27°C° 0.2 mm 3 mps 755 mmHg 77%
    06:00 +27°C° 0.2 mm 3 mps 755 mmHg 76%
    07:00 +27°C° 0.2 mm 3 mps 756 mmHg 75%
    08:00 +29°C° 0.1 mm 2 mps 756 mmHg 67%
    09:00 +31°C° 0.1 mm 2 mps 756 mmHg 58%
    10:00 +33°C° 0.1 mm 1 mps 756 mmHg 50%
    11:00 +35°C° 0 mm 2 mps 755 mmHg 47%
    12:00 +35°C° 0 mm 3 mps 754 mmHg 45%
    13:00 +36°C° 0 mm 4 mps 753 mmHg 42%
    14:00 +35°C° 0.1 mm 4 mps 752 mmHg 46%
    15:00 +34°C° 0.1 mm 5 mps 752 mmHg 50%
    16:00 +33°C° 0.1 mm 6 mps 751 mmHg 55%
    17:00 +30°C° 0.2 mm 5 mps 752 mmHg 60%
    18:00 +29°C° 0.2 mm 4 mps 753 mmHg 65%
    19:00 +28°C° 0.2 mm 3 mps 754 mmHg 70%
    20:00 +28°C° 0 mm 4 mps 754 mmHg 72%
    21:00 +27°C° 0 mm 4 mps 754 mmHg 74%
    22:00 +27°C° 0 mm 4 mps 754 mmHg 76%
    23:00 +27°C° 0 mm 4 mps 754 mmHg 76%

    Day after tomorrow, 23 October, Monday

    Time Temperature Precipitation Wind Pressure Humidity
    00:00 +27°C° 0 mm 4 mps 754 mmHg 76%
    01:00 +27°C° 0 mm 3 mps 754 mmHg 77%
    02:00 +27°C° 0 mm 3 mps 754 mmHg 77%
    03:00 +26°C° 0 mm 2 mps 753 mmHg 78%
    04:00 +26°C° 0 mm 2 mps 753 mmHg 79%
    05:00 +26°C° 0 mm 1 mps 753 mmHg 78%
    06:00 +27°C° 0 mm 1 mps 754 mmHg 77%
    07:00 +27°C° 0 mm 1 mps 754 mmHg 75%
    08:00 +29°C° 0 mm 1 mps 754 mmHg 67%
    09:00 +30°C° 0 mm 2 mps 754 mmHg 60%
    10:00 +32°C° 0 mm 2 mps 754 mmHg 52%
    11:00 +34°C° 0 mm 3 mps 753 mmHg 51%
    12:00 +34°C° 0 mm 4 mps 753 mmHg 51%
    13:00 +35°C° 0 mm 4 mps 752 mmHg 50%
    14:00 +34°C° 0 mm 5 mps 751 mmHg 53%
    15:00 +33°C° 0 mm 5 mps 751 mmHg 56%
    16:00 +32°C° 0 mm 5 mps 751 mmHg 58%
    17:00 +30°C° 0 mm 5 mps 751 mmHg 64%
    18:00 +29°C° 0 mm 4 mps 752 mmHg 69%
    19:00 +28°C° 0 mm 4 mps 752 mmHg 74%
    20:00 +27°C° 0 mm 3 mps 753 mmHg 75%
    21:00 +27°C° 0 mm 3 mps 753 mmHg 75%
    22:00 +27°C° 0 mm 2 mps 754 mmHg 76%
    23:00 +27°C° 0 mm 2 mps 753 mmHg 76%

    24 October, Tuesday

    Time Temperature Precipitation Wind Pressure Humidity
    00:00 +27°C° 0 mm 2 mps 753 mmHg 77%
    01:00 +27°C° 0 mm 2 mps 753 mmHg 78%
    02:00 +27°C° 0 mm 2 mps 753 mmHg 78%
    03:00 +27°C° 0 mm 2 mps 753 mmHg 79%
    04:00 +26°C° 0 mm 1 mps 752 mmHg 79%
    05:00 +27°C° 0.2 mm 1 mps 753 mmHg 78%
    06:00 +27°C° 0.2 mm 1 mps 754 mmHg 78%
    07:00 +27°C° 0.2 mm 1 mps 754 mmHg 77%
    08:00 +28°C° 0 mm 2 mps 754 mmHg 71%
    09:00 +29°C° 0 mm 2 mps 754 mmHg 65%
    10:00 +30°C° 0 mm 2 mps 754 mmHg 59%
    11:00 +31°C° 0 mm 3 mps 754 mmHg 56%
    12:00 +34°C° 0 mm 3 mps 753 mmHg 52%
    13:00 +35°C° 0 mm 3 mps 752 mmHg 49%
    14:00 +34°C° 0 mm 3 mps 752 mmHg 50%
    15:00 +34°C° 0 mm 4 mps 751 mmHg 52%
    16:00 +33°C° 0 mm 4 mps 751 mmHg 54%
    17:00 +32°C° 0 mm 4 mps 751 mmHg 59%
    18:00 +30°C° 0 mm 4 mps 752 mmHg 64%
    19:00 +28°C° 0 mm 3 mps 753 mmHg 70%
    20:00 +28°C° 0 mm 4 mps 753 mmHg 72%
    21:00 +28°C° 0 mm 4 mps 753 mmHg 74%
    22:00 +27°C° 0 mm 4 mps 754 mmHg 76%
    23:00 +27°C° 0 mm 4 mps 754 mmHg 78%

    25 October, Wednesday

    Time Temperature Precipitation Wind Pressure Humidity
    00:00 +27°C° 0 mm 3 mps 754 mmHg 79%
    01:00 +27°C° 0 mm 3 mps 754 mmHg 80%
    02:00 +27°C° 0 mm 3 mps 753 mmHg 79%
    03:00 +27°C° 0 mm 2 mps 753 mmHg 79%
    04:00 +27°C° 0 mm 2 mps 753 mmHg 79%
    05:00 +27°C° 0 mm 2 mps 754 mmHg 77%
    06:00 +27°C° 0 mm 2 mps 754 mmHg 76%
    07:00 +28°C° 0 mm 1 mps 754 mmHg 74%
    08:00 +29°C° 0 mm 1 mps 754 mmHg 66%
    09:00 +31°C° 0 mm 1 mps 754 mmHg 57%
    10:00 +33°C° 0 mm 1 mps 754 mmHg 49%
    11:00 +35°C° 0 mm 2 mps 753 mmHg 47%
    12:00 +36°C° 0 mm 3 mps 753 mmHg 45%
    13:00 +36°C° 0 mm 4 mps 752 mmHg 43%
    14:00 +35°C° 0 mm 5 mps 752 mmHg 46%
    15:00 +34°C° 0 mm 5 mps 751 mmHg 49%
    16:00 +33°C° 0 mm 5 mps 751 mmHg 52%
    17:00 +32°C° 0 mm 5 mps 752 mmHg 59%
    18:00 +29°C° 0 mm 4 mps 752 mmHg 65%
    19:00 +28°C° 0 mm 4 mps 753 mmHg 71%
    20:00 +28°C° 0 mm 4 mps 753 mmHg 73%
    21:00 +28°C° 0 mm 4 mps 753 mmHg 75%
    22:00 +27°C° 0 mm 4 mps 754 mmHg 77%
    23:00 +27°C° 0 mm 4 mps 753 mmHg 77%

    26 October, Thursday

    Time Temperature Precipitation Wind Pressure Humidity
    00:00 +27°C° 0 mm 3 mps 753 mmHg 78%
    01:00 +27°C° 0 mm 3 mps 753 mmHg 79%
    02:00 +27°C° 0 mm 3 mps 753 mmHg 79%
    03:00 +27°C° 0 mm 3 mps 753 mmHg 79%
    04:00 +27°C° 0 mm 2 mps 753 mmHg 79%
    05:00 +27°C° 0 mm 2 mps 754 mmHg 78%
    06:00 +27°C° 0 mm 1 mps 754 mmHg 76%
    07:00 +27°C° 0 mm 1 mps 755 mmHg 75%
    08:00 +29°C° 0 mm 1 mps 755 mmHg 66%
    09:00 +31°C° 0 mm 2 mps 755 mmHg 58%
    10:00 +34°C° 0 mm 2 mps 755 mmHg 50%
    11:00 +34°C° 0 mm 3 mps 754 mmHg 48%
    12:00 +35°C° 0 mm 4 mps 753 mmHg 46%
    13:00 +36°C° 0 mm 5 mps 752 mmHg 44%
    14:00 +35°C° 0 mm 5 mps 752 mmHg 47%
    15:00 +34°C° 0 mm 5 mps 752 mmHg 50%
    16:00 +33°C° 0 mm 5 mps 752 mmHg 54%
    17:00 +30°C° 0 mm 5 mps 752 mmHg 59%
    18:00 +29°C° 0 mm 4 mps 752 mmHg 65%
    19:00 +28°C° 0 mm 4 mps 753 mmHg 71%
    20:00 +28°C° 0 mm 4 mps 753 mmHg 73%
    21:00 +27°C° 0 mm 4 mps 753 mmHg 75%
    22:00 +27°C° 0 mm 4 mps 753 mmHg 77%
    23:00 +27°C° 0 mm 3 mps 753 mmHg 77%
    Show more